Home > Weather > Walsrode > Past weeks

Flag for Germany Past Weather in Walsrode, Lower Saxony, Germany — Yesterday and Last 2 Weeks

Now
81 °F

Passing clouds.


Feels Like: 81 °F
Forecast: 59 / 74 °F
Wind: 9 mph from West

Location: Fassberg

Current Time: Jul 25, 2016 at 6:00:43 PM

Latest Report: Jul 25, 2016 at 5:20 PM


Visibility: N/A

Pressure: 30.04 "Hg

Humidity: 51%

Dew Point: 61 °F

Location of WalsrodeLocation

Past Weather in Walsrode — Graph

°F

Walsrode Temperature Yesterday

Maximum temperature yesterday: 82 °F (at 3:20 PM)
Minimum temperature yesterday: 61 °F (at 6:20 AM)
Average temperature yesterday: 73 °F

High & Low Weather Summary for the Past Weeks

 TemperatureHumidityPressure
High88 °F (Jul 21, 4:20 PM)100% (Jul 17, 6:20 AM)30.24 "Hg (Jul 17, 6:20 AM)
Low45 °F (Jul 16, 3:20 AM)37% (Jul 20, 7:20 PM)29.71 "Hg (Jul 10, 11:20 PM)
Average66 °F72%30.02 "Hg
* Reported Jul 10 4:20 PM — Jul 25 4:20 PM, Walsrode, Weather by CustomWeather, © 2016

Note: Actual official high and low records may vary slightly from our data, if they occured in-between our weather recording intervals... More about our weather records

Advertising

Walsrode Weather History for the Previous 24 Hours

Scroll right to see more
 ConditionsComfort  
Time TempWeatherWind HumidityBarometerVisibility
4:20 PM
Mon, Jul 25
82 °FPassing clouds.8 mph48%30.04 "HgN/A
3:20 PM79 °FBroken clouds.7 mph61%30.04 "HgN/A
2:20 PM72 °FBroken clouds.14 mph78%30.04 "HgN/A
1:20 PM81 °FBroken clouds.6 mph54%30.04 "HgN/A
12:20 PM79 °FPartly sunny.8 mph58%30.04 "HgN/A
11:20 AM77 °FBroken clouds.6 mph65%30.04 "HgN/A
10:20 AM75 °FBroken clouds.3 mph65%30.04 "HgN/A
9:20 AM72 °FBroken clouds.3 mph78%30.04 "HgN/A
8:20 AM68 °FBroken clouds.1 mph83%30.04 "HgN/A
7:20 AM64 °FPartly sunny.3 mph94%30.04 "HgN/A
6:20 AM63 °FPartly cloudy.No wind94%30.04 "HgN/A
5:20 AM61 °FPartly cloudy.1 mph94%30.04 "HgN/A
4:20 AM61 °FFog.1 mph94%30.04 "HgN/A
3:20 AM63 °FPassing clouds.2 mph88%30.07 "HgN/A
2:20 AM64 °FPassing clouds.3 mph88%30.07 "HgN/A
1:20 AM64 °FPassing clouds.1 mph88%30.07 "HgN/A
12:20 AM66 °FPassing clouds.1 mph83%30.07 "HgN/A
11:20 PM
Sun, Jul 24
68 °FPassing clouds.1 mph78%30.07 "HgN/A
10:20 PM68 °FScattered clouds.1 mph83%30.07 "HgN/A
9:20 PM73 °FScattered clouds.6 mph69%30.07 "HgN/A
8:20 PM79 °FScattered clouds.5 mph54%30.04 "HgN/A
7:20 PM79 °FPartly sunny.2 mph54%30.04 "HgN/A
6:20 PM81 °FPartly sunny.3 mph48%30.04 "HgN/A
Weather by CustomWeather, © 2016

See weather overviewHow to use our weather pages